| time (UTC) | temp F | wind direction | speed knots | gust knots | rain 1hr in | rain 24hr in | rain mn in | humidity % | barometer mb |
| 20260507043004 | 50 | 6 | 0.9 | 0.9 | 0.02 | 0.50 | 0.00 | 99 | 991.0 |
| 20260507042505 | 51 | 325 | 0.0 | 0.9 | 0.02 | 0.50 | 0.00 | 99 | 991.1 |
| 20260507042004 | 51 | 311 | 0.0 | 1.7 | 0.03 | 0.50 | 0.00 | 99 | 990.9 |
| 20260507040504 | 51 | 332 | 0.0 | 0.0 | 0.04 | 0.50 | 0.00 | 99 | 991.0 |
| 20260507040004 | 51 | 166 | 0.0 | 0.0 | 0.05 | 0.50 | 0.00 | 99 | 991.4 |
| 20260507035505 | 51 | 256 | 0.0 | 0.9 | 0.06 | 0.50 | 0.50 | 99 | 991.6 |
| 20260507035004 | 51 | 251 | 0.0 | 0.9 | 0.08 | 0.50 | 0.50 | 99 | 991.5 |
| 20260507034504 | 52 | 123 | 0.0 | 0.9 | 0.10 | 0.50 | 0.50 | 99 | 991.1 |
| 20260507034004 | 52 | 7 | 0.0 | 2.6 | 0.10 | 0.50 | 0.50 | 99 | 991.2 |
| 20260507033504 | 52 | 47 | 0.9 | 1.7 | 0.09 | 0.48 | 0.48 | 99 | 991.1 |
| 20260507033004 | 52 | 344 | 0.0 | 0.9 | 0.10 | 0.48 | 0.48 | 99 | 991.2 |
| 20260507032504 | 53 | 342 | 0.9 | 1.7 | 0.10 | 0.48 | 0.48 | 99 | 991.2 |
| 20260507032004 | 53 | 6 | 0.0 | 0.9 | 0.10 | 0.48 | 0.48 | 99 | 991.3 |
| 20260507031504 | 53 | 325 | 0.9 | 1.7 | 0.12 | 0.48 | 0.48 | 99 | 991.4 |
| 20260507031004 | 54 | 279 | 0.0 | 1.7 | 0.11 | 0.46 | 0.46 | 99 | 991.4 |
| 20260507030004 | 54 | 254 | 0.0 | 0.9 | 0.10 | 0.45 | 0.45 | 99 | 991.3 |
| 20260507025504 | 54 | 328 | 0.0 | 1.7 | 0.09 | 0.44 | 0.44 | 99 | 991.0 |
| 20260507025004 | 54 | 6 | 0.0 | 0.9 | 0.07 | 0.43 | 0.43 | 99 | 991.1 |
| 20260507024504 | 55 | 341 | 0.0 | 0.9 | 0.05 | 0.41 | 0.41 | 99 | 990.9 |
| 20260507024004 | 55 | 353 | 0.0 | 5.2 | 0.04 | 0.39 | 0.39 | 99 | 991.1 |
| 20260507023504 | 55 | 20 | 0.9 | 5.2 | 0.04 | 0.39 | 0.39 | 99 | 990.9 |
| 20260507023004 | 55 | 346 | 0.9 | 2.6 | 0.03 | 0.38 | 0.38 | 99 | 990.7 |
| 20260507022504 | 57 | 357 | 1.7 | 2.6 | 0.03 | 0.38 | 0.38 | 99 | 990.7 |
| 20260507021504 | 58 | 214 | 0.9 | 4.3 | 0.00 | 0.35 | 0.35 | 99 | 990.3 |
| 20260507021004 | 58 | 280 | 0.9 | 4.3 | 0.00 | 0.35 | 0.35 | 99 | 990.4 |
| 20260507020504 | 58 | 263 | 0.9 | 5.2 | 0.00 | 0.35 | 0.35 | 99 | 990.3 |
| 20260507020004 | 58 | 347 | 0.9 | 7.0 | 0.00 | 0.35 | 0.35 | 99 | 990.3 |
| 20260507015504 | 58 | 220 | 0.9 | 5.2 | 0.00 | 0.35 | 0.35 | 99 | 990.4 |
| 20260507015004 | 58 | 286 | 0.9 | 5.2 | 0.00 | 0.35 | 0.35 | 99 | 990.2 |
| 20260507014004 | 58 | 257 | 0.9 | 1.7 | 0.00 | 0.35 | 0.35 | 99 | 990.4 |
| 20260507013504 | 58 | 152 | 0.9 | 5.2 | 0.00 | 0.35 | 0.35 | 99 | 990.4 |
| 20260507013004 | 58 | 302 | 0.9 | 2.6 | 0.00 | 0.35 | 0.35 | 99 | 990.3 |
| 20260507012504 | 58 | 268 | 0.9 | 2.6 | 0.00 | 0.35 | 0.35 | 99 | 990.2 |
| 20260507012004 | 58 | 253 | 0.0 | 5.2 | 0.00 | 0.35 | 0.35 | 99 | 990.4 |
| 20260507011504 | 58 | 344 | 0.9 | 4.3 | 0.00 | 0.35 | 0.35 | 99 | 990.3 |
| 20260507011004 | 58 | 222 | 1.7 | 4.3 | 0.00 | 0.35 | 0.35 | 99 | 990.2 |
| 20260507010004 | 58 | 252 | 0.9 | 4.3 | 0.00 | 0.35 | 0.35 | 99 | 990.0 |
| 20260507005504 | 58 | 273 | 1.7 | 8.7 | 0.00 | 0.35 | 0.35 | 99 | 990.0 |
| 20260507005004 | 58 | 260 | 1.7 | 8.7 | 0.00 | 0.35 | 0.35 | 99 | 989.9 |
| 20260507004504 | 58 | 245 | 0.9 | 7.8 | 0.00 | 0.35 | 0.35 | 99 | 989.9 |
| 20260507004004 | 58 | 95 | 0.9 | 5.2 | 0.00 | 0.35 | 0.35 | 99 | 990.1 |
| 20260507003004 | 58 | 208 | 1.7 | 7.0 | 0.00 | 0.35 | 0.35 | 99 | 990.1 |
| 20260507002504 | 58 | 184 | 1.7 | 6.1 | 0.00 | 0.35 | 0.35 | 99 | 990.3 |
| 20260507002004 | 58 | 188 | 1.7 | 6.1 | 0.00 | 0.35 | 0.35 | 99 | 990.1 |
| 20260507001504 | 58 | 146 | 1.7 | 5.2 | 0.00 | 0.35 | 0.35 | 99 | 990.2 |
| 20260507001005 | 58 | 34 | 0.9 | 5.2 | 0.00 | 0.35 | 0.35 | 99 | 990.2 |
| 20260507000505 | 58 | 219 | 0.9 | 6.1 | 0.00 | 0.35 | 0.35 | 99 | 990.2 |
| 20260507000004 | 58 | 143 | 0.9 | 4.3 | 0.00 | 0.35 | 0.35 | 99 | 990.2 |
| 20260506235504 | 58 | 178 | 2.6 | 5.2 | 0.00 | 0.35 | 0.35 | 99 | 990.3 |
| 20260506235004 | 58 | 224 | 1.7 | 5.2 | 0.00 | 0.35 | 0.35 | 99 | 990.0 |
| 20260506234004 | 58 | 276 | 2.6 | 5.2 | 0.00 | 0.35 | 0.35 | 99 | 989.9 |
| 20260506233504 | 58 | 170 | 1.7 | 5.2 | 0.00 | 0.35 | 0.35 | 99 | 990.1 |
| 20260506233004 | 58 | 243 | 0.9 | 4.3 | 0.01 | 0.35 | 0.35 | 99 | 989.8 |
| 20260506232504 | 58 | 259 | 1.7 | 6.1 | 0.02 | 0.35 | 0.35 | 99 | 989.8 |
| 20260506232004 | 58 | 209 | 0.9 | 4.3 | 0.03 | 0.35 | 0.35 | 99 | 989.6 |
| 20260506231004 | 58 | 275 | 0.9 | 2.6 | 0.03 | 0.35 | 0.35 | 99 | 989.6 |
| 20260506230504 | 58 | 215 | 0.9 | 5.2 | 0.04 | 0.35 | 0.35 | 99 | 989.6 |
| 20260506230004 | 58 | 172 | 0.9 | 5.2 | 0.04 | 0.35 | 0.35 | 99 | 989.6 |
| 20260506224504 | 57 | 268 | 0.9 | 7.8 | 0.06 | 0.35 | 0.35 | 99 | 989.6 |
| 20260506223504 | 58 | 187 | 0.9 | 4.3 | 0.06 | 0.35 | 0.35 | 98 | 989.4 |
| 20260506223005 | 58 | 118 | 0.9 | 1.7 | 0.05 | 0.34 | 0.34 | 98 | 989.5 |
| 20260506222004 | 58 | 225 | 1.7 | 4.3 | 0.03 | 0.32 | 0.32 | 98 | 989.7 |
| 20260506221504 | 58 | 214 | 0.9 | 6.1 | 0.03 | 0.32 | 0.32 | 98 | 989.5 |
| 20260506221004 | 58 | 351 | 0.9 | 2.6 | 0.03 | 0.32 | 0.32 | 98 | 989.6 |
| 20260506220504 | 58 | 242 | 0.0 | 2.6 | 0.03 | 0.31 | 0.31 | 98 | 989.5 |
| 20260506220004 | 58 | 240 | 1.7 | 5.2 | 0.03 | 0.31 | 0.31 | 98 | 989.5 |
| 20260506215504 | 58 | 182 | 0.9 | 6.1 | 0.02 | 0.29 | 0.29 | 98 | 989.6 |
| 20260506215004 | 58 | 237 | 0.9 | 5.2 | 0.02 | 0.29 | 0.29 | 98 | 989.7 |
| 20260506214505 | 58 | 219 | 0.9 | 4.3 | 0.03 | 0.29 | 0.29 | 98 | 989.3 |
| 20260506214004 | 58 | 237 | 0.9 | 2.6 | 0.04 | 0.29 | 0.29 | 98 | 989.6 |
| 20260506213504 | 58 | 240 | 0.9 | 4.3 | 0.04 | 0.29 | 0.29 | 98 | 989.7 |
| 20260506213004 | 58 | 156 | 0.9 | 4.3 | 0.05 | 0.29 | 0.29 | 98 | 989.6 |
| 20260506212503 | 58 | 194 | 2.6 | 5.2 | 0.05 | 0.29 | 0.29 | 98 | 989.7 |
| 20260506211504 | 58 | 188 | 0.9 | 2.6 | 0.06 | 0.29 | 0.29 | 98 | 989.7 |
| 20260506210504 | 58 | 229 | 0.9 | 2.6 | 0.05 | 0.28 | 0.28 | 98 | 989.8 |
| 20260506210004 | 58 | 216 | 0.9 | 5.2 | 0.06 | 0.28 | 0.28 | 98 | 989.9 |
| 20260506205504 | 58 | 249 | 0.9 | 2.6 | 0.05 | 0.27 | 0.27 | 98 | 990.1 |
| 20260506205004 | 58 | 226 | 0.9 | 2.6 | 0.05 | 0.27 | 0.27 | 98 | 990.1 |
| 20260506204504 | 58 | 186 | 1.7 | 5.2 | 0.04 | 0.26 | 0.26 | 98 | 990.0 |
| 20260506204004 | 58 | 235 | 0.9 | 4.3 | 0.04 | 0.25 | 0.25 | 97 | 990.0 |
| 20260506203504 | 58 | 212 | 0.9 | 5.2 | 0.04 | 0.25 | 0.25 | 97 | 990.0 |
| 20260506203004 | 58 | 160 | 1.7 | 5.2 | 0.03 | 0.24 | 0.24 | 97 | 990.2 |
| 20260506202504 | 58 | 185 | 0.9 | 5.2 | 0.03 | 0.24 | 0.24 | 97 | 990.1 |
| 20260506202004 | 58 | 192 | 1.7 | 5.2 | 0.03 | 0.24 | 0.24 | 97 | 990.0 |
| 20260506201504 | 58 | 186 | 1.7 | 6.1 | 0.02 | 0.23 | 0.23 | 97 | 990.2 |
| 20260506201004 | 59 | 179 | 0.9 | 1.7 | 0.02 | 0.23 | 0.23 | 97 | 990.0 |
| 20260506200504 | 58 | 178 | 0.9 | 6.1 | 0.02 | 0.23 | 0.23 | 97 | 990.2 |
| 20260506195004 | 58 | 203 | 1.7 | 5.2 | 0.04 | 0.22 | 0.22 | 96 | 990.2 |
| 20260506194504 | 58 | 220 | 3.5 | 7.0 | 0.04 | 0.22 | 0.22 | 96 | 990.4 |
| 20260506194003 | 59 | 211 | 0.9 | 4.3 | 0.03 | 0.21 | 0.21 | 97 | 990.4 |
| 20260506193504 | 59 | 202 | 0.9 | 4.3 | 0.04 | 0.21 | 0.21 | 97 | 990.5 |
| 20260506192504 | 58 | 253 | 0.9 | 7.0 | 0.04 | 0.21 | 0.21 | 96 | 990.5 |
| 20260506192004 | 58 | 196 | 2.6 | 6.1 | 0.05 | 0.21 | 0.21 | 96 | 990.6 |
| 20260506191005 | 58 | 236 | 1.7 | 4.3 | 0.06 | 0.21 | 0.21 | 96 | 990.8 |
| 20260506190504 | 58 | 237 | 0.9 | 5.2 | 0.06 | 0.21 | 0.21 | 96 | 990.6 |
| 20260506190005 | 58 | 230 | 1.7 | 7.0 | 0.05 | 0.20 | 0.20 | 96 | 990.6 |
| 20260506185504 | 58 | 228 | 2.6 | 8.7 | 0.06 | 0.20 | 0.20 | 96 | 990.9 |
| 20260506185004 | 58 | 150 | 2.6 | 6.1 | 0.05 | 0.18 | 0.18 | 96 | 991.1 |
| 20260506184504 | 58 | 139 | 1.7 | 7.0 | 0.06 | 0.18 | 0.18 | 96 | 991.2 |
| 20260506184004 | 58 | 158 | 2.6 | 7.0 | 0.07 | 0.18 | 0.18 | 95 | 991.0 |
| 20260506183503 | 58 | 203 | 1.7 | 7.8 | 0.09 | 0.17 | 0.17 | 95 | 990.9 |
| 20260506183005 | 58 | 139 | 1.7 | 5.2 | 0.11 | 0.17 | 0.17 | 95 | 990.8 |
| 20260506182504 | 58 | 250 | 0.9 | 7.0 | 0.13 | 0.17 | 0.17 | 95 | 990.6 |
| 20260506182004 | 58 | 189 | 1.7 | 7.0 | 0.14 | 0.16 | 0.16 | 95 | 990.7 |
| 20260506181504 | 58 | 155 | 1.7 | 5.2 | 0.15 | 0.16 | 0.16 | 95 | 990.6 |
| 20260506180504 | 59 | 154 | 0.9 | 4.3 | 0.15 | 0.15 | 0.15 | 94 | 990.9 |
| 20260506180005 | 59 | 206 | 1.7 | 5.2 | 0.15 | 0.15 | 0.15 | 94 | 991.3 |
| 20260506175004 | 59 | 207 | 1.7 | 2.6 | 0.13 | 0.13 | 0.13 | 94 | 991.3 |
| 20260506174004 | 60 | 189 | 1.7 | 5.2 | 0.11 | 0.11 | 0.11 | 93 | 991.6 |
| 20260506173504 | 60 | 37 | 0.9 | 4.3 | 0.08 | 0.08 | 0.08 | 92 | 991.9 |
| 20260506173004 | 60 | 200 | 0.9 | 2.6 | 0.06 | 0.06 | 0.06 | 91 | 991.8 |
| 20260506172504 | 61 | 206 | 1.7 | 7.0 | 0.04 | 0.04 | 0.04 | 90 | 991.8 |
| 20260506172004 | 62 | 179 | 0.9 | 1.7 | 0.02 | 0.02 | 0.02 | 89 | 991.9 |
| 20260506171504 | 62 | 292 | 0.0 | 2.6 | 0.01 | 0.01 | 0.01 | 87 | 992.2 |
| 20260506171004 | 62 | 191 | 0.9 | 5.2 | 0.01 | 0.01 | 0.01 | 85 | 992.2 |
| 20260506170504 | 63 | 248 | 1.7 | 4.3 | 0.00 | 0.00 | 0.00 | 82 | 992.3 |
| 20260506170004 | 64 | 204 | 1.7 | 6.1 | 0.00 | 0.00 | 0.00 | 80 | 992.3 |
| 20260506164504 | 66 | 264 | 4.3 | 18.2 | 0.00 | 0.00 | 0.00 | 72 | 992.1 |
| 20260506164004 | 67 | 34 | 2.6 | 7.0 | 0.00 | 0.00 | 0.00 | 71 | 991.8 |
| 20260506163004 | 67 | 237 | 3.5 | 7.8 | 0.00 | 0.00 | 0.00 | 70 | 991.8 |
| 20260506162504 | 67 | 221 | 2.6 | 8.7 | 0.00 | 0.00 | 0.00 | 70 | 991.8 |
| 20260506162004 | 67 | 226 | 1.7 | 7.0 | 0.00 | 0.00 | 0.00 | 70 | 991.9 |
| 20260506161504 | 67 | 260 | 1.7 | 8.7 | 0.00 | 0.00 | 0.00 | 71 | 992.1 |
| 20260506161005 | 67 | 146 | 2.6 | 8.7 | 0.00 | 0.00 | 0.00 | 70 | 992.0 |
| 20260506160004 | 66 | 279 | 2.6 | 12.2 | 0.00 | 0.00 | 0.00 | 71 | 992.2 |
| 20260506155504 | 67 | 184 | 2.6 | 8.7 | 0.00 | 0.00 | 0.00 | 70 | 992.3 |
| 20260506155004 | 67 | 284 | 2.6 | 12.2 | 0.00 | 0.00 | 0.00 | 70 | 992.4 |
| 20260506154004 | 67 | 223 | 2.6 | 11.3 | 0.00 | 0.00 | 0.00 | 69 | 992.3 |
| 20260506153504 | 67 | 179 | 4.3 | 11.3 | 0.00 | 0.00 | 0.00 | 68 | 992.3 |
| 20260506153004 | 67 | 270 | 1.7 | 7.0 | 0.00 | 0.00 | 0.00 | 69 | 992.4 |
| 20260506152504 | 68 | 306 | 2.6 | 8.7 | 0.00 | 0.00 | 0.00 | 68 | 992.2 |
| 20260506152004 | 68 | 206 | 1.7 | 6.1 | 0.00 | 0.00 | 0.00 | 68 | 992.3 |
| 20260506151504 | 68 | 199 | 1.7 | 7.0 | 0.00 | 0.00 | 0.00 | 69 | 992.3 |
| 20260506151004 | 68 | 114 | 2.6 | 15.6 | 0.00 | 0.00 | 0.00 | 68 | 992.4 |
| 20260506150505 | 68 | 219 | 0.9 | 8.7 | 0.00 | 0.00 | 0.00 | 69 | 992.4 |
| 20260506150005 | 67 | 240 | 2.6 | 10.4 | 0.00 | 0.00 | 0.00 | 69 | 992.3 |
| 20260506144004 | 67 | 253 | 2.6 | 6.1 | 0.00 | 0.00 | 0.00 | 69 | 992.6 |
| 20260506143504 | 67 | 302 | 1.7 | 7.0 | 0.00 | 0.00 | 0.00 | 70 | 992.6 |
| 20260506143004 | 67 | 249 | 2.6 | 7.8 | 0.00 | 0.00 | 0.00 | 69 | 992.7 |
| 20260506142004 | 67 | 326 | 2.6 | 10.4 | 0.00 | 0.00 | 0.00 | 70 | 992.7 |
| 20260506141004 | 66 | 225 | 2.6 | 8.7 | 0.00 | 0.00 | 0.00 | 72 | 992.7 |
| 20260506140504 | 66 | 184 | 2.6 | 11.3 | 0.00 | 0.00 | 0.00 | 72 | 992.7 |
| 20260506140005 | 66 | 240 | 2.6 | 7.0 | 0.00 | 0.00 | 0.00 | 72 | 992.6 |
| 20260506135504 | 66 | 322 | 1.7 | 6.1 | 0.00 | 0.00 | 0.00 | 73 | 992.6 |
| 20260506135004 | 66 | 12 | 2.6 | 10.4 | 0.00 | 0.00 | 0.00 | 73 | 992.5 |
| 20260506134504 | 66 | 209 | 1.7 | 7.0 | 0.00 | 0.00 | 0.00 | 74 | 992.5 |
| 20260506134004 | 66 | 228 | 3.5 | 7.0 | 0.00 | 0.00 | 0.00 | 73 | 992.3 |
| 20260506133504 | 66 | 251 | 2.6 | 7.0 | 0.00 | 0.00 | 0.00 | 74 | 992.5 |
| 20260506133004 | 66 | 206 | 2.6 | 7.0 | 0.00 | 0.00 | 0.00 | 74 | 992.5 |
| 20260506132504 | 66 | 246 | 1.7 | 5.2 | 0.00 | 0.00 | 0.00 | 74 | 992.6 |
| 20260506132005 | 65 | 197 | 2.6 | 11.3 | 0.00 | 0.00 | 0.00 | 75 | 992.8 |
| 20260506131504 | 65 | 181 | 2.6 | 8.7 | 0.00 | 0.00 | 0.00 | 75 | 992.7 |
| 20260506131004 | 65 | 188 | 1.7 | 7.0 | 0.00 | 0.00 | 0.00 | 77 | 992.6 |
| 20260506130505 | 64 | 212 | 1.7 | 6.1 | 0.00 | 0.00 | 0.00 | 77 | 992.8 |
| 20260506130005 | 64 | 171 | 1.7 | 4.3 | 0.00 | 0.00 | 0.00 | 77 | 993.1 |
| 20260506125004 | 64 | 199 | 1.7 | 7.0 | 0.00 | 0.00 | 0.00 | 78 | 993.1 |
| 20260506124504 | 63 | 241 | 2.6 | 13.0 | 0.00 | 0.00 | 0.00 | 78 | 993.3 |
| 20260506124004 | 63 | 197 | 4.3 | 13.0 | 0.00 | 0.00 | 0.00 | 78 | 993.3 |
| 20260506123504 | 64 | 217 | 2.6 | 12.2 | 0.00 | 0.00 | 0.00 | 78 | 993.2 |
| 20260506123004 | 64 | 211 | 2.6 | 8.7 | 0.00 | 0.00 | 0.00 | 77 | 993.4 |
| 20260506122504 | 65 | 233 | 1.7 | 7.0 | 0.00 | 0.00 | 0.00 | 76 | 993.3 |
| 20260506122004 | 63 | 259 | 2.6 | 7.0 | 0.00 | 0.00 | 0.00 | 79 | 993.0 |
| 20260506121504 | 63 | 166 | 2.6 | 10.4 | 0.00 | 0.00 | 0.00 | 80 | 993.1 |
| 20260506121004 | 63 | 242 | 1.7 | 6.1 | 0.00 | 0.00 | 0.00 | 80 | 993.2 |
| 20260506120005 | 62 | 230 | 2.6 | 7.8 | 0.00 | 0.00 | 0.00 | 81 | 993.1 |
| 20260506115505 | 62 | 244 | 2.6 | 8.7 | 0.00 | 0.00 | 0.00 | 81 | 993.2 |
| 20260506115005 | 62 | 194 | 3.5 | 13.9 | 0.00 | 0.00 | 0.00 | 81 | 993.1 |
| 20260506114504 | 61 | 176 | 1.7 | 7.8 | 0.00 | 0.00 | 0.00 | 82 | 993.1 |
| 20260506114005 | 61 | 201 | 2.6 | 6.1 | 0.00 | 0.00 | 0.00 | 83 | 993.0 |
| 20260506113504 | 61 | 173 | 2.6 | 6.1 | 0.00 | 0.00 | 0.00 | 83 | 992.9 |
| 20260506113004 | 61 | 240 | 0.9 | 6.1 | 0.00 | 0.00 | 0.00 | 83 | 992.9 |
| 20260506112004 | 61 | 262 | 1.7 | 7.0 | 0.00 | 0.00 | 0.00 | 83 | 993.2 |
| 20260506111504 | 60 | 329 | 1.7 | 7.8 | 0.00 | 0.00 | 0.00 | 84 | 993.6 |
| 20260506110504 | 59 | 177 | 2.6 | 7.0 | 0.00 | 0.00 | 0.00 | 86 | 993.4 |
| 20260506110004 | 59 | 191 | 1.7 | 7.0 | 0.00 | 0.00 | 0.00 | 86 | 993.5 |
| 20260506105504 | 59 | 186 | 2.6 | 6.1 | 0.00 | 0.00 | 0.00 | 86 | 993.3 |
| 20260506104504 | 59 | 253 | 0.9 | 5.2 | 0.00 | 0.00 | 0.00 | 85 | 993.2 |
| 20260506104004 | 59 | 173 | 0.9 | 7.0 | 0.00 | 0.00 | 0.00 | 85 | 993.1 |
| 20260506103505 | 59 | 206 | 0.9 | 7.8 | 0.00 | 0.00 | 0.00 | 86 | 993.1 |
| 20260506103004 | 58 | 179 | 2.6 | 7.0 | 0.00 | 0.00 | 0.00 | 87 | 993.1 |
| 20260506102504 | 58 | 160 | 0.9 | 2.6 | 0.00 | 0.00 | 0.00 | 87 | 993.3 |
| 20260506102005 | 58 | 175 | 1.7 | 6.1 | 0.00 | 0.00 | 0.00 | 87 | 993.3 |
| 20260506101504 | 58 | 149 | 0.9 | 4.3 | 0.00 | 0.00 | 0.00 | 87 | 993.2 |
| 20260506100504 | 58 | 174 | 1.7 | 5.2 | 0.00 | 0.00 | 0.00 | 87 | 993.1 |
| 20260506100004 | 58 | 249 | 0.9 | 5.2 | 0.00 | 0.00 | 0.00 | 87 | 993.0 |
| 20260506095505 | 58 | 248 | 0.9 | 5.2 | 0.00 | 0.00 | 0.00 | 87 | 993.1 |
| 20260506095004 | 58 | 153 | 1.7 | 6.1 | 0.00 | 0.00 | 0.00 | 87 | 993.2 |
| 20260506094504 | 58 | 173 | 0.9 | 5.2 | 0.00 | 0.00 | 0.00 | 87 | 993.2 |
| 20260506094004 | 58 | 137 | 2.6 | 8.7 | 0.00 | 0.00 | 0.00 | 87 | 993.1 |
| 20260506093504 | 58 | 226 | 0.9 | 5.2 | 0.00 | 0.00 | 0.00 | 87 | 993.0 |
| 20260506092504 | 58 | 288 | 1.7 | 8.7 | 0.00 | 0.00 | 0.00 | 86 | 993.0 |
| 20260506092004 | 58 | 181 | 1.7 | 7.0 | 0.00 | 0.00 | 0.00 | 87 | 992.9 |
| 20260506091504 | 58 | 182 | 1.7 | 4.3 | 0.00 | 0.00 | 0.00 | 87 | 993.0 |
| 20260506091004 | 58 | 225 | 1.7 | 7.0 | 0.00 | 0.00 | 0.00 | 87 | 993.0 |
| 20260506090505 | 58 | 180 | 0.9 | 4.3 | 0.00 | 0.00 | 0.00 | 86 | 993.0 |
| 20260506090004 | 58 | 190 | 0.9 | 2.6 | 0.00 | 0.00 | 0.00 | 86 | 993.0 |
| 20260506085504 | 58 | 256 | 0.9 | 6.1 | 0.00 | 0.00 | 0.00 | 86 | 993.1 |
| 20260506085004 | 58 | 184 | 1.7 | 6.1 | 0.00 | 0.00 | 0.00 | 86 | 993.2 |
| 20260506084505 | 58 | 202 | 0.9 | 4.3 | 0.00 | 0.00 | 0.00 | 86 | 993.3 |
| 20260506084004 | 58 | 223 | 0.9 | 5.2 | 0.00 | 0.00 | 0.00 | 85 | 993.2 |
| 20260506083504 | 58 | 190 | 0.9 | 5.2 | 0.00 | 0.00 | 0.00 | 85 | 993.3 |
| 20260506083004 | 58 | 187 | 0.9 | 4.3 | 0.00 | 0.00 | 0.00 | 85 | 993.3 |
| 20260506082504 | 59 | 158 | 1.7 | 6.1 | 0.00 | 0.00 | 0.00 | 84 | 993.1 |
| 20260506081504 | 59 | 174 | 0.9 | 6.1 | 0.00 | 0.00 | 0.00 | 84 | 993.1 |
| 20260506081005 | 59 | 249 | 0.9 | 5.2 | 0.00 | 0.00 | 0.00 | 84 | 993.2 |
| 20260506080504 | 59 | 153 | 1.7 | 6.1 | 0.00 | 0.00 | 0.00 | 83 | 993.2 |
| 20260506073504 | 59 | 176 | 3.5 | 7.8 | 0.00 | 0.00 | 0.00 | 81 | 993.1 |
| 20260506073004 | 59 | 263 | 0.9 | 5.2 | 0.00 | 0.00 | 0.00 | 81 | 993.3 |
| 20260506072504 | 60 | 182 | 1.7 | 6.1 | 0.00 | 0.00 | 0.00 | 81 | 993.3 |
| 20260506072003 | 60 | 209 | 2.6 | 8.7 | 0.00 | 0.00 | 0.00 | 81 | 993.5 |
| 20260506071004 | 59 | 189 | 0.9 | 2.6 | 0.00 | 0.00 | 0.00 | 81 | 993.2 |
| 20260506070504 | 59 | 207 | 1.7 | 6.1 | 0.00 | 0.00 | 0.00 | 81 | 993.2 |
| 20260506062504 | 60 | 273 | 0.9 | 4.3 | 0.00 | 0.00 | 0.00 | 79 | 993.1 |
| 20260506062004 | 60 | 116 | 0.9 | 5.2 | 0.00 | 0.00 | 0.00 | 79 | 993.2 |
| 20260506061504 | 60 | 193 | 0.9 | 7.0 | 0.00 | 0.00 | 0.00 | 79 | 993.3 |
| 20260506061004 | 61 | 105 | 2.6 | 7.0 | 0.00 | 0.00 | 0.00 | 78 | 993.1 |
| 20260506060504 | 61 | 174 | 0.9 | 5.2 | 0.00 | 0.00 | 0.00 | 78 | 993.3 |
| 20260506051004 | 62 | 256 | 2.6 | 8.7 | 0.00 | 0.00 | 0.00 | 76 | 993.5 |
| 20260506050504 | 62 | 63 | 2.6 | 10.4 | 0.00 | 0.00 | 0.00 | 75 | 993.5 |
| 20260506045005 | 62 | 169 | 1.7 | 10.4 | 0.00 | 0.00 | 0.00 | 74 | 993.6 |
| 20260506044004 | 63 | 256 | 1.7 | 8.7 | 0.00 | 0.00 | 0.00 | 74 | 993.7 |
| 20260506043504 | 63 | 142 | 1.7 | 7.8 | 0.00 | 0.00 | 0.00 | 73 | 993.6 |